Regional Weather Roundup
Issued by NWS Charleston, SC

Current Version | Previous Version | Graphics & Text | Print | Product List | Glossary On
Versions: 1 2 3 4 5 6 7 8 9 10 11 12 13 14 15 16 17 18 19 20 21 22 23 24 25 26 27 28 29 30 31 32 33 34 35 36 37 38 39 40 41 42 43 44 45 46 47 48 49 50
000
ASUS42 KCHS 271328
RWRCHS

REGIONAL WEATHER ROUNDUP
NATIONAL WEATHER SERVICE CHARLESTON SC
900 AM EDT FRI MAY 27 2016

NOTE: "FAIR" INDICATES FEW OR NO CLOUDS BELOW 12,000 FEET WITH NO
SIGNIFICANT WEATHER AND/OR OBSTRUCTIONS TO VISIBILITY.

NOT ALL STATIONS ARE QUALITY CONTROLLED. USE DATA WITH CAUTION...
ESPECIALLY DEWPOINT OBSERVATIONS.

SCZ027-030-031-034>040-042>050-271400-
...SOUTHEAST SOUTH CAROLINA...

CITY           SKY/WX    TMP DP  RH WIND       PRES   REMARKS
N CHARLESTON   SUNNY     78  59  51 SE8       30.14S
WATERFRONT PRK   N/A     76  65  68 CALM      30.12S
MOUNT PLEASANT FAIR      79  64  61 CALM      30.15S
JOHNS ISLAND   FAIR      79  63  57 E9        30.14S
PINOPOLIS        N/A     82  64  54 CALM      30.06R
MONCKS CORNER  FAIR      73  57  56 E3        30.16R
SUMMERVILLE    FAIR      77  64  65 CALM      30.16R
BEAUFORT MCAS  SUNNY     77  64  64 E6        30.13S
BEAUFORT ARPT  FAIR      77  61  57 SE8       30.13R
HILTON HEAD IS SUNNY     70  63  78 CALM      30.15R
WALTERBORO     SUNNY     77  63  61 E5        30.15R
ALLENDALE      FAIR      75  63  64 CALM      30.14R

...SOUTHERN MIDLANDS AND PEE DEE...

CITY           SKY/WX    TMP DP  RH WIND       PRES   REMARKS
GEORGETOWN     FAIR      77  63  61 SE8       30.16S
KINGSTREE      FAIR      75  59  57 CALM      30.17R
ORANGEBURG     SUNNY     74  64  71 SE3       30.16R
BARNWELL       FAIR      75  68  78 CALM      30.16R
AIKEN          FAIR      72  61  68 SE6       30.19S
MANNING        FAIR      73  63  68 CALM      30.16R
COLUMBIA       PTSUNNY   72  62  71 CALM      30.15S
SUMTER         SUNNY     73  64  73 VRB1      30.14S
FLORENCE       PTSUNNY   73  66  78 CALM      30.17R
MYRTLE BEACH   SUNNY     79  63  57 SE8       30.17S
N MYRTLE BEACH SUNNY     77  65  66 SE6       30.16R

$$

GAZ063-065-086>088-099>101-113>116-118-119-134>141-150-271400-
...SOUTHEAST GEORGIA...

CITY           SKY/WX    TMP DP  RH WIND       PRES   REMARKS
SAVANNAH ARPT  MOSUNNY   77  61  57 E7        30.13R
HUNTER AAF     SUNNY     77  64  62 VRB5      30.11R
FORT STEWART   SUNNY     75  61  61 NE6       30.10S
STATESBORO     SUNNY     76  65  67 S7        30.14R
SYLVANIA       SUNNY     78  65  65 SE5       30.15R
CLAXTON        FAIR      75  64  70 E5        30.14R

...CSRA...CENTRAL AND FAR SOUTHEAST GEORGIA...

CITY           SKY/WX    TMP DP  RH WIND       PRES   REMARKS
THOMSON        PTSUNNY   73  65  76 CALM      30.20S
AUGUSTA-BUSH   PTSUNNY   71  64  78 CALM      30.15R
AUGUSTA-DANIEL MOSUNNY   72  61  68 S3        30.16R
SWAINSBORO     FAIR      75  61  60 SE5       30.15R
VIDALIA        SUNNY     75  63  64 SE5       30.14R
EASTMAN        FAIR      75  63  66 SE5       30.17R
HAZLEHURST     FAIR      76  61  59 CALM      30.12S
ALMA           SUNNY     73  61  65 VRB5      30.12R
WAYCROSS       SUNNY     75  63  66 E7        30.12S
JESUP          FAIR      72  61  68 E3        30.13R
BAXLEY         FAIR      77  63  61 E3        30.12R
BRUNSWICK      MOSUNNY   77  64  65 CALM      30.12R
SAINT SIMONS   MOSUNNY   78  65  63 NE9       30.10S

$$

SCZ027-028-034-036>038-045-046-048>050-GAZ119-141-271400-
...LAKE AND SUPPLEMENTAL COASTAL OBSERVATIONS...

STATION/POSITION TIME  TEMP    WIND        PRES    WAVE   SWELL
                       AIR SEA DIR/SP/G            HT/PER HT/PER/DIR
                 (UTC) (F)     (DEG/KT/KT) (MB)    (FT/S) (FT/S/D)
WINYAH BAY       1200   72        CALM     1020.0S
LAKE MURRAY      1200   71     200/  1/  4 1020.7R
ACE BASIN NERRS  1200   72        CALM     1021.0R
FORT PULASKI     1300   76 76   60/ 10/ 13 1020.5R
SAPELO ISLAND    1300   79      60/  8     1019.0F

$$

ANZ835-935-AMZ111-154-330-350-352-354-370-450-454-472-271400-
...C-MAN AND BUOY OBSERVATIONS...

STATION/POSITION TIME  TEMP    WIND        PRES    WAVE   SWELL
                       AIR SEA DIR/SP/G            HT/PER HT/PER/DIR
                 (UTC) (F)     (DEG/KT/KT) (MB)    (FT/S) (FT/S/D)
BUOY 41004       1250   77 77   20/ 10/ 12 1020.3R   2/ 6   2/ 6
BUOY 41008       1250   76 76   50/ 12/ 16 1019.5F   3/ 5   2/130/ 8
FOLLY BEACH CMAN 1300   76     100/  8/  9 1020.7F
CAPERS NEARSHORE 1308   77 76   90/  6/  8 1020.5F
FRIPP NEARSHORE  1308   76 76   80/ 10/ 12 1019.8F


STATION/POSITION TIME  TEMP    WIND        PRES    WAVE   SWELL
                       AIR SEA DIR/SP/G            HT/PER HT/PER/DIR
                 (UTC) (F)     (DEG/KT/KT) (MB)    (FT/S) (FT/S/D)
5E ST. MARYS GA  1301      77                N/A     3/ 5
FRYING PAN BUOY  1300   76 76   80/  8/ 10 1021.4R
BUOY 41025       1250   77 81  320/  6/  6 1022.4R   2/ 8   2/130/ 8
CAPE LOOKOUT NC  1200   73     100/  3/  3 1021.7R
BUOY 41002       1250   74 78   60/ 16/ 19 1019.4R   3/ 4   2/130/ 8
BUOY 41010       1220   76 78   50/ 12/ 14 1017.1R
ST AUGUSTINE FL  1200   77 78   70/ 10/ 11 1019.0R


$$




USA.gov is the U.S. government's official web portal to all federal, state and local government web resources and services.